Weather History for KHVR - January, 2014

Change the Weather History Date:

Thursday, January 2, 2014

  Actual Average Record
Temperature  
Mean Temperature 23 °F 17 °F  
Max Temperature 42 °F 28 °F 55 °F (1927)
Min Temperature 4 °F 6 °F -38 °F (1911)
Degree Days  
Heating Degree Days 42 48  
Month to date heating degree days 90 96  
Since 1 July heating degree days 3633 3562  
Cooling Degree Days 0 0  
Month to date cooling degree days 0 0  
Year to date cooling degree days 0 0  
Moisture  
Dew Point 13 °F    
Average Humidity 76    
Maximum Humidity 91    
Minimum Humidity 60    
Precipitation  
Precipitation T in 0.02 in 0.29 in (1957)
Month to date precipitation 0.03 0.03  
Year to date precipitation 0.03 0.03  
Snow  
Snow T in 0.30 in 3.50 in (2009)
Month to date snowfall 0.5 0.6  
Since 1 July snowfall 26.5 15.6  
Snow Depth 5.00 in    
Sea Level Pressure  
Sea Level Pressure 30.00 in    
Wind  
Wind Speed 15 mph (SE)    
Max Wind Speed 31 mph    
Max Gust Speed 36 mph    
Visibility 8 miles    
Events Snow    
T = Trace of Precipitation, MM = Missing Value Source: NWS Daily Summary

Daily Weather History Graph

Daily Weather History Graph

Search for Another Location

Airport or City:

Trip Planner

Search our weather history database for the weather conditions in past years. The results will help you decide how hot, cold, wet, or windy it might be!

Date:

Astronomy

Jan. 02, 2014 Rise Set
Actual Time 8:11 AM MST 4:35 PM MST
Civil Twilight 7:34 AM MST 5:12 PM MST
Nautical Twilight 6:54 AM MST 5:52 PM MST
Astronomical Twilight 6:16 AM MST 6:30 PM MST
Moon 8:45 AM MST (1/2) 6:48 PM MST (1/2)
Length of Visible Light 9h 37m
Length of Day
8h 24m
Waxing Crescent, 3% of the Moon is Illuminated
Jan 2
Waxing Crescent
Jan 7
First Quarter
Jan 15
Full
Jan 23
Last Quarter
Jan 30
New

Hourly Weather History & Observations

Time (MST) Temp. Windchill Dew Point Humidity Pressure Visibility Wind Dir Wind Speed Gust Speed Precip Events Conditions
12:21 AM 6.1 °F -6.8 °F 3.9 °F 91% 30.15 in 1.8 mi East 8.1 mph - N/A   Overcast
12:30 AM 6.1 °F -5.6 °F 3.9 °F 91% 30.14 in 3.0 mi East 6.9 mph - N/A   Overcast
12:50 AM 6.8 °F -7.8 °F 3.2 °F 85% 30.13 in 1.8 mi East 10.4 mph - N/A   Overcast
12:53 AM 6.1 °F -8.7 °F 3.9 °F 91% 30.26 in 1.2 mi East 10.4 mph - N/A   Overcast
1:11 AM 7.0 °F -6.6 °F 3.9 °F 87% 30.13 in 2.0 mi East 9.2 mph - N/A   Overcast
1:19 AM 7.0 °F -5.7 °F 3.9 °F 87% 30.12 in 6.0 mi East 8.1 mph - N/A   Overcast
1:53 AM 6.1 °F -8.7 °F 3.0 °F 87% 30.25 in 4.0 mi East 10.4 mph - N/A   Overcast
2:00 AM 6.1 °F -7.8 °F 3.0 °F 87% 30.12 in 1.8 mi East 9.2 mph - N/A   Overcast
2:28 AM 6.1 °F -7.8 °F 3.9 °F 91% 30.12 in 1.2 mi East 9.2 mph - 0.00 in Snow Light Snow
2:36 AM 6.1 °F -7.8 °F 3.9 °F 91% 30.11 in 2.0 mi East 9.2 mph - 0.00 in   Overcast
2:45 AM 6.1 °F -6.8 °F 3.0 °F 87% 30.11 in 5.0 mi ENE 8.1 mph - 0.00 in   Mostly Cloudy
2:53 AM 5.0 °F -6.9 °F 1.9 °F 87% 30.25 in 7.0 mi East 6.9 mph - 0.00 in   Mostly Cloudy
3:08 AM 5.0 °F -10.8 °F 1.0 °F 84% 30.10 in 10.0 mi East 11.5 mph - N/A   Partly Cloudy
3:53 AM 5.0 °F -9.1 °F 1.0 °F 84% 30.22 in 8.0 mi East 9.2 mph - 0.00 in   Clear
4:41 AM 5.0 °F -9.1 °F 1.9 °F 87% 30.06 in 9.0 mi East 9.2 mph - N/A   Scattered Clouds
4:53 AM 5.0 °F -8.1 °F 1.9 °F 87% 30.20 in 8.0 mi East 8.1 mph - N/A   Partly Cloudy
5:53 AM 6.1 °F -5.6 °F 3.0 °F 87% 30.19 in 3.0 mi Variable 6.9 mph - N/A   Mostly Cloudy
6:16 AM 6.1 °F -7.8 °F 3.0 °F 87% 30.02 in 8.0 mi East 9.2 mph - N/A   Scattered Clouds
6:53 AM 6.1 °F -2.8 °F 1.9 °F 83% 30.17 in 10.0 mi East 4.6 mph - N/A   Clear
7:53 AM 9.0 °F - 5.0 °F 84% 30.15 in 8.0 mi Calm Calm - N/A   Clear
8:53 AM 8.1 °F -0.5 °F 3.9 °F 83% 30.12 in 10.0 mi ESE 4.6 mph - N/A   Clear
9:53 AM 9.0 °F 0.6 °F 6.1 °F 88% 30.09 in 10.0 mi West 4.6 mph - N/A   Clear
10:53 AM 10.0 °F 3.6 °F 6.1 °F 84% 30.07 in 10.0 mi North 3.5 mph - N/A   Clear
11:53 AM 17.1 °F 7.6 °F 12.0 °F 81% 30.03 in 10.0 mi West 6.9 mph - N/A   Clear
12:53 PM 37.0 °F 26.4 °F 28.0 °F 70% 29.94 in 10.0 mi SW 20.7 mph - N/A   Clear
1:48 PM 39.2 °F 29.0 °F 28.4 °F 65% 29.79 in 10.0 mi SW 21.9 mph - N/A   Clear
1:53 PM 39.9 °F 29.7 °F 28.0 °F 63% 29.89 in 10.0 mi SW 23.0 mph - N/A   Clear
2:53 PM 41.0 °F 31.6 °F 28.0 °F 60% 29.85 in 10.0 mi SW 20.7 mph - N/A   Clear
3:53 PM 41.0 °F 32.5 °F 30.0 °F 65% 29.84 in 10.0 mi SW 17.3 mph - N/A   Partly Cloudy
4:53 PM 39.9 °F 29.5 °F 30.0 °F 68% 29.81 in 10.0 mi SW 24.2 mph - N/A   Clear
5:53 PM 39.0 °F 29.0 °F 28.9 °F 67% 29.79 in 10.0 mi SW 20.7 mph - N/A   Clear
6:53 PM 39.9 °F 29.2 °F 28.9 °F 65% 29.76 in 10.0 mi SW 25.3 mph 33.4 mph N/A   Clear
7:53 PM 41.0 °F 30.2 °F 28.9 °F 62% 29.73 in 10.0 mi SSW 27.6 mph - N/A   Clear
8:53 PM 39.9 °F 29.7 °F 28.9 °F 65% 29.71 in 10.0 mi SW 23.0 mph - N/A   Clear
9:53 PM 39.9 °F 29.2 °F 30.0 °F 68% 29.66 in 10.0 mi SW 25.3 mph 32.2 mph N/A   Partly Cloudy
10:53 PM 42.1 °F 31.9 °F 30.0 °F 62% 29.61 in 10.0 mi SW 26.5 mph - N/A   Mostly Cloudy
11:53 PM 41.0 °F 32.2 °F 30.9 °F 67% 29.59 in 10.0 mi SW 18.4 mph - N/A   Overcast